Back to catalog

STARLINK-3649

AliveCommunicationsVLEO
NORAD 51980·PAYLOAD·🇺🇸 United States

Launched Mar 9, 2022 from Cape Canaveral Space Force Station

Loading…

Next Passes (next 24 hours)

TLE

FreshSource: CelesTrak SupGP

Epoch: Sep 14, 2026, 21:18 UTC

1 51980C 22025AA  26257.88798611  .00031685  00000+0  90666-3 0  2573
2 51980  53.1584 261.6612 0001318  73.3025  25.6012 15.35378555    12

Track STARLINK-3649 in real time with AllMySat

Download on the App Store